Probability
0 0 0 0 0 0 0 0 0 0 0 0 0 0 0 0 0 0 0 0 0 0 0 0 0 0 0 0 0 0 0 0 0 0 0 0 0 0 0 0 0 0 0 0
0 0 0 0 0 0 0 0 0 0 0 0 0 0 0 0 0 0 0 0 0 0 0 0 0 0 0 0 0 0 0 0 0 0 0 0 0 0 0 0 0 0 0 0
0 0 0 0 0 0 0 0 0 0 0 0 0 0 0 0 0 0 0 0 0 0 0 0 0 0 0 0 0 0 0 0 0 0 0 0 0 0 0 0 0 0 0 0
0 0 0 0 0 0 0 0 0 0 0 0 0 0 0 0 0 0 0 0 0 0 0 0 0 0 0 0 0 0 0 0 0 0 0 0 0 0 0 0 0 0 0 0
0 0 0 0 0 0 0 0 0 0 0 0 0 0 0 0 0 0 0 0 0 0 0 0 0 0 0 0 0 0 0 0 0 0 0 0 0 0 0 0 0 0 0 0
0 0 0 0 0 0 0 0 0 0 0 0 0 0 0 0 0 0 0 0 0 0 0 0 0 0 0 0 0 0 0 0 0 0 0 0 0 0 0 0 0 0 0 0
0 0 0 0 0 0 0 0 0 0 0 0 0 0 0 0 0 0 0 0 0 0 0 0 0 0 0 0 0 0 0 0 0 0 0 0 0 0 0 0 0 0 0 0
0 0 0 0 0 0 0 0 0 0 0 0 0 0 0 0 0 0 0 0 0 0 0 0 0 0 0 0 0 0 0 0 0 0 0 0 0 0 0 0 0 0 0 0
0 0 0 0 0 0 0 0 0 0 0 0 0 0 0 0 0 0 0 0 0 0 0 0 0 0 0 0 0 0 0 0 0 0 0 0 0 0 0 0 0 0 0 0
0 0 0 0 0 0 0 0 0 0 0 0 0 0 0 0 0 0 0 0 0 0 0 0 0 0 0 0 0 0 0 0 0 0 0 0 0 0 0 0 0 0 0 0
0 0 0 0 0 0 0 0 0 0 0 0 0 0 0 0 0 0 0 0 0 0 0 0 0 0 0 0 0 0 0 0 0 0 0 0 0 0 0 0 0 0 0 0
0 0 0 0 0 0 0 0 0 0 0 0 0 0 0 0 0 0 0 0 0 0 0 0 0 0 0 0 0 0 0 0 0 0 0 0 0 0 0 0 0 0 0 0
0 0 0 0 0 0 0 0 0 0 0 0 0 0 0 0 0 0 0 0 0 0 0 0 0 0 0 0 0 0 0 0 0 0 0 0 0 0 0 0 0 0 0 0
0 0 0 0 0 0 0 0 0 0 0 0 0 0 0 0 0 0 0 0 0 0 0 0 0 0 0 0 0 0 0 0 0 0 0 0 0 0 0 0 0 0 0 0
0 0 0 0 0 0 0 0 0 0 0 0 0 0 0 0 0 0 0 0 0 0 0 0 0 0 0 0 0 0 0 0 0 0 0 0 0 0 0 0 0 0 0 0
0 0 0 0 0 0 0 0 0 0 0 0 0 0 0 0 0 0 0 0 0 0 0 0 0 0 0 0 0 0 0 0 0 0 0 0 0 0 0 0 0 0 0 0
0 0 0 0 0 0 0 0 0 0 0 0 0 0 0 0 0 0 0 0 0 0 0 0 0 0 0 0 0 0 0 0 0 0 0 0 0 0 0 0 0 0 0 0
0 0 0 0 0 0 0 0 0 0 0 0 0 0 0 0 0 0 0 0 0 0 0 0 0 0 0 0 0 0 0 0 0 0 0 0 0 0 0 0 0 0 0 0
0 0 0 0 0 0 0 0 0 0 0 0 0 0 0 0 0 0 0 0 0 0 0 0 0 0 0 0 0 0 0 0 0 0 0 0 0 0 0 0 0 0 0 0
0 0 0 0 0 0 0 0 0 0 0 0 0 0 0 0 0 0 0 0 0 0 0 0 0 0 0 0 0 0 0 0 0 0 0 0 0 0 0 0 0 0 0 0
0 0 0 0 0 0 0 0 0 0 0 0 0 0 0 0 0 0 0 0 0 0 0 0 0 0 0 0 0 0 0 0 0 0 0 0 0 0 0 0 0 0 0 0
0 0 0 0 0 0 0 0 0 0 0 0 0 0 0 0 0 0 0 0 0 0 0 0 0 0 0 0 0 0 0 0 0 0 0 0 0 0 0 0 0 0 0 0
0 0 0 0 0 0 0 0 0 0 0 0 0 0 0 0 0 0 0 0 0 0 0 0 0 0 0 0 0 0 0 0 0 0 0 0 0 0 0 0 0 0 0 0
0 0 0 0 0 0 0 0 0 0 0 0 0 0 0 0 0 0 0 0 0 0 0 0 0 0 0 0 0 0 0 0 0 0 0 0 0 0 0 0 0 0 0 0
0 0 0 0 0 0 0 0 0 0 0 0 0 0 0 0 0 0 0 0 0 0 0 0 0 0 0 0 0 0 0 0 0 0 0 0 0 0 0 0 0 0 0 0
0 0 0 0 0 0 0 0 0 0 0 0 0 0 0 0 0 0 0 0 0 0 0 0 0 0 0 0 0 0 0 0 0 0 0 0 0 0 0 0 0 0 0 0
0 0 0 0 0 0 0 0 0 0 0 0 0 0 0 0 0 0 0 0 0 0 0 0 0 0 0 0 0 0 0 0 0 0 0 0 0 0 0 0 0 0 0 0
Wind_Speed
7 6 4 7 8 8 9 9 9 9 10 12 8 7 7 5 4 3 3 3 3 3 2 2 1 1 2 2 1 1 1 1 1 2 2 1 1 1 1 1 2 2 2 2
5 5 6 9 10 10 11 10 11 11 14 10 7 4 5 6 4 4 5 4 3 3 3 2 2 2 2 2 2 1 1 1 1 1 1 1 1 1 1 1 2 2 2 2
5 4 3 10 11 11 9 9 9 12 12 6 5 6 6 6 5 5 5 4 4 4 3 3 3 3 3 2 1 1 1 1 1 1 2 1 1 1 1 1 1 1 2 2
2 1 8 9 4 8 9 9 9 9 7 6 6 6 5 4 4 4 4 4 4 4 3 3 2 2 2 2 1 1 1 1 1 1 2 1 1 1 1 1 1 1 2 2
2 4 9 8 4 5 6 9 9 10 9 6 4 4 5 4 4 4 5 4 4 4 3 2 2 2 2 1 1 1 1 2 2 1 2 1 1 1 1 1 1 1 2 2
3 4 8 7 3 2 2 7 6 7 7 5 2 3 6 3 3 3 3 3 3 2 2 2 2 2 2 2 2 2 2 2 1 1 1 1 1 1 1 1 1 2 2 2
6 7 10 7 2 4 3 8 3 5 6 5 5 6 5 3 3 3 3 3 2 2 2 3 2 2 2 2 2 2 1 1 1 1 1 1 1 1 1 1 1 1 2 2
6 7 11 4 5 7 8 3 2 3 4 5 5 4 3 4 3 3 2 2 2 2 2 2 2 2 2 3 2 1 1 1 1 1 0 0 0 0 0 0 1 1 2 2
10 10 5 5 7 6 3 3 3 3 3 3 4 4 4 4 4 3 3 3 2 2 2 1 2 3 3 3 1 1 1 0 1 1 0 0 0 0 0 0 1 1 1 2
6 9 7 6 6 4 4 5 4 4 3 3 4 4 4 4 4 3 3 3 2 2 2 2 2 2 2 2 2 2 1 0 0 0 0 1 0 0 0 1 1 1 2 2
7 8 6 6 7 6 5 4 4 3 3 4 4 4 4 4 4 3 3 2 2 2 3 3 2 1 1 1 2 2 1 0 0 0 0 0 1 1 1 2 2 2 2 2
10 8 6 6 4 4 4 4 4 3 3 3 4 5 4 4 4 3 3 2 2 2 3 2 2 1 1 2 3 2 1 1 0 0 0 0 0 1 3 2 3 3 4 4
8 5 5 5 3 3 4 5 4 4 5 4 4 4 3 3 3 2 2 2 3 3 3 2 2 2 2 2 2 3 2 1 1 1 1 0 0 0 1 3 3 3 4 5
5 3 4 5 4 4 4 3 2 2 3 4 3 2 2 2 2 2 3 3 3 3 3 2 2 2 2 2 2 2 2 2 1 1 1 1 1 1 1 1 2 3 4 5
6 6 7 4 3 3 3 2 2 2 2 2 2 2 2 2 3 3 3 3 2 2 2 2 3 2 1 2 2 2 2 1 1 1 1 1 1 0 1 1 1 2 2 3
4 4 4 4 5 4 3 3 4 4 3 3 3 3 3 3 3 3 2 2 2 3 3 3 3 2 2 3 2 2 1 2 1 1 1 0 0 0 1 1 1 2 2 3
4 5 5 5 6 5 5 5 5 5 4 4 4 3 2 2 2 2 2 2 3 3 3 3 3 2 2 3 3 2 1 1 1 1 0 0 1 1 1 1 1 2 2 3
7 7 7 6 6 6 5 5 4 4 4 3 2 2 2 3 3 3 3 2 1 1 2 3 3 2 2 2 2 2 2 1 1 1 1 1 1 0 0 1 1 2 2 3
5 5 5 5 6 5 5 4 4 4 3 2 3 3 3 3 3 2 2 1 2 2 2 2 3 2 2 3 3 2 2 2 1 1 0 1 0 1 1 1 1 2 2 2
3 2 3 3 3 3 3 3 3 3 3 3 3 2 2 2 2 2 2 2 3 3 2 3 3 2 2 3 3 2 2 2 1 1 1 0 0 0 1 1 1 2 2 2
2 2 2 2 2 2 3 3 3 3 3 3 3 3 3 2 2 2 2 1 2 1 2 3 2 2 2 3 3 2 2 2 1 1 1 1 1 1 1 1 1 1 2 2
2 2 2 2 2 1 2 2 3 3 3 3 3 3 2 2 1 1 2 2 2 2 1 2 2 3 3 3 2 2 2 2 1 1 1 1 1 1 1 1 1 1 2 2
2 2 2 2 2 2 1 1 2 3 3 3 3 3 3 3 2 2 2 1 1 2 1 2 3 3 3 2 2 2 2 2 1 1 1 1 1 1 1 1 1 1 2 2
2 1 1 1 1 1 1 1 1 1 2 2 3 3 3 2 1 1 2 2 2 2 1 3 4 4 3 2 2 2 2 1 1 1 1 1 1 1 1 1 1 1 1 2
1 1 1 1 1 1 2 1 1 1 1 1 1 1 2 2 2 2 1 2 3 2 1 2 3 3 2 2 2 2 1 1 1 1 1 1 1 1 1 1 1 1 1 1
1 1 1 2 2 2 2 2 2 2 2 1 1 1 1 1 2 2 2 2 2 2 2 1 1 2 2 2 2 2 1 1 1 1 1 1 1 1 1 1 1 1 1 1
0 0 0 0 1 1 2 2 2 2 2 2 2 1 1 2 2 2 2 2 2 1 1 1 1 1 2 2 2 1 1 1 1 1 1 1 1 1 1 1 1 1 1 1
Wind_Direction
252 260 238 240 240 219 213 216 221 244 248 261 264 258 259 261 262 256 260 256 238 229 233 243 259 259 255 265 264 235 220 241 261 274 281 274 266 274 279 288 294 291 293 296
268 257 249 260 251 234 232 230 237 257 267 262 265 265 266 262 257 254 257 256 245 235 233 237 247 247 255 266 270 240 226 255 276 291 300 290 276 276 277 278 286 294 294 296
262 287 303 264 236 216 222 221 210 233 248 269 279 268 253 252 251 251 254 250 245 245 243 238 239 233 235 246 260 246 250 270 285 291 299 293 301 308 286 282 288 295 300 300
255 359 246 248 223 209 220 237 224 236 251 253 255 269 259 247 242 256 259 259 256 248 249 246 233 230 228 237 225 231 252 264 276 286 294 302 300 291 286 291 288 291 299 304
186 243 271 284 240 195 207 254 229 231 247 257 270 295 276 252 243 246 250 251 251 245 244 237 227 217 200 221 215 227 252 262 264 266 285 293 287 287 291 308 311 301 303 302
184 221 247 254 235 180 136 271 240 216 234 241 234 273 269 265 270 264 259 255 254 247 239 231 238 202 185 206 209 234 247 258 264 264 263 267 265 284 292 294 298 312 313 304
209 234 260 252 204 131 180 250 247 211 222 215 216 233 262 276 272 262 257 261 260 240 226 228 222 186 194 208 228 242 247 255 268 279 258 238 254 283 295 329 333 319 311 306
190 222 252 208 151 189 220 245 246 229 221 218 236 253 266 269 263 263 259 266 254 237 246 236 197 181 196 225 236 223 210 239 273 281 260 172 116 342 357 4 347 320 318 321
199 219 240 186 205 224 209 229 244 232 232 219 239 252 259 263 263 255 244 253 236 224 245 250 199 184 202 229 209 174 159 227 298 314 315 356 148 116 3 334 304 303 309 316
245 257 252 241 244 251 238 239 246 238 231 222 236 249 259 263 263 256 253 246 233 218 228 246 225 204 207 199 164 156 164 199 279 327 336 356 355 349 326 293 291 302 307 307
247 263 281 264 234 232 239 243 250 247 227 222 232 249 251 259 261 251 255 247 217 213 221 231 220 205 195 169 151 154 161 168 241 231 247 336 345 291 276 262 270 281 280 276
235 232 219 245 238 220 222 239 239 238 249 247 233 244 253 259 260 249 249 244 221 222 229 230 213 206 198 174 159 157 160 165 207 217 242 274 341 350 344 322 324 315 307 304
237 241 231 254 249 223 224 235 239 232 234 247 249 239 243 257 258 247 247 234 223 226 229 226 213 208 207 179 162 163 179 201 215 216 225 253 271 328 332 343 342 332 330 326
232 208 239 240 239 238 231 234 236 245 244 237 240 244 247 257 263 254 246 238 228 223 222 211 200 216 216 177 166 170 185 209 210 207 218 231 243 264 282 307 324 332 335 339
233 219 225 230 229 225 216 204 217 247 252 257 237 230 227 236 252 261 260 244 218 211 218 206 203 220 198 172 171 177 188 202 195 196 213 227 248 268 285 297 304 312 320 333
232 230 222 222 229 230 218 214 224 237 238 241 245 241 238 240 253 261 255 221 200 216 220 214 219 213 182 175 175 179 192 203 184 179 190 215 249 267 287 295 304 309 314 318
211 228 225 228 230 230 226 225 223 229 228 230 239 241 237 241 260 261 256 236 221 223 218 213 216 203 187 177 170 177 182 189 181 157 188 220 234 243 268 285 300 303 301 309
226 229 223 218 220 226 233 230 223 219 221 225 217 217 222 222 233 247 254 252 234 238 228 208 199 191 181 168 163 168 169 169 172 181 208 236 258 265 278 289 296 300 305 320
233 227 226 223 221 218 222 221 216 212 210 187 192 217 231 233 233 237 241 226 213 233 242 213 191 165 165 174 162 162 163 161 159 174 208 237 335 337 306 293 298 307 312 324
243 227 214 216 216 210 210 212 201 200 200 184 186 208 232 244 231 219 224 232 229 227 219 201 175 165 172 176 162 154 162 162 163 171 172 185 207 268 282 288 295 303 314 320
234 221 207 209 220 216 204 196 186 193 197 187 191 207 219 230 213 196 201 245 266 227 199 180 157 162 170 170 161 152 156 157 164 175 175 187 217 245 269 290 301 307 313 314
233 218 214 210 208 237 241 207 189 185 185 194 202 201 192 197 200 222 234 222 220 219 177 163 164 177 175 165 149 148 153 158 166 173 179 193 212 231 258 286 296 305 309 305
243 228 219 221 216 232 254 220 190 182 188 197 201 200 195 198 196 192 230 228 206 207 170 177 189 182 161 137 138 146 156 165 174 182 190 203 217 230 248 270 284 295 300 304
239 238 236 233 174 162 208 246 185 181 193 211 212 200 183 180 223 228 207 203 205 191 169 185 182 168 142 125 135 141 155 168 181 182 186 195 205 220 246 260 275 287 293 302
234 236 215 182 189 212 205 167 135 150 163 184 196 190 187 184 189 194 178 180 179 153 147 171 168 155 132 128 137 144 158 176 178 172 180 182 196 214 248 272 277 282 291 299
227 240 247 243 231 210 182 164 166 171 156 149 153 174 161 146 149 153 149 152 160 153 143 144 146 135 127 136 141 147 154 175 178 169 176 182 200 214 247 287 295 293 293 298
218 268 289 306 288 198 167 164 164 172 171 167 171 173 156 147 142 138 138 136 135 135 140 147 147 146 145 143 143 149 157 164 163 168 179 191 203 224 250 271 288 297 297 299